[Iaude] MPEC J34: 2024 JJ [a=1.61,e=0.57,i=3.0,H=25.6]
    mpec at cfa.harvard.edu 
    mpec at cfa.harvard.edu
       
    Fri May  3 05:58:35 EDT 2024
    
    
  
M.P.E.C. 2024-J34                                   Issued 2024 May 3, 09:57 UT
     The Minor Planet Electronic Circulars contain information on unusual
         minor planets, routine data on comets and natural satellites,
         and occasional editorial announcements.  They are published
    on behalf of Division F of the International Astronomical Union by the
          Minor Planet Center, Smithsonian Astrophysical Observatory,
                          Cambridge, MA 02138, U.S.A.
			  
             Prepared using the Tamkin Foundation Computer Network
                              MPC at CFA.HARVARD.EDU
            URL https://www.minorplanetcenter.net/    ISSN 1523-6714
                                    2024 JJ                                     
Observations:
     K24J00J* C2024 05 01.41826314 28 18.283-08 43 14.25         21.94wXEJ034F52
     K24J00J  C2024 05 01.42948114 28 16.479-08 43 37.24         21.59wXEJ034F52
     K24J00J  C2024 05 01.44074314 28 14.665-08 44 00.65         21.74wXEJ034F52
     K24J00J KC2024 05 02.20975914 26 38.66 -09 09 20.6          22.1 GVEJ034H21
     K24J00J KC2024 05 02.21553714 26 37.84 -09 09 31.7          21.7 GVEJ034H21
     K24J00J KC2024 05 02.22083314 26 37.06 -09 09 41.2          21.7 GVEJ034H21
     K24J00J KC2024 05 02.40079 14 26 13.45 -09 15 02.6          21.8 RVEJ034291
     K24J00J KC2024 05 02.40521 14 26 12.84 -09 15 10.9          22.4 RVEJ034291
     K24J00J KC2024 05 02.40964 14 26 12.24 -09 15 18.9          21.9 RVEJ034291
     K24J00J !C2024 05 03.37451 14 24 27.77 -09 42 48.5          21.3 GVEJ034673
     K24J00J !C2024 05 03.39152 14 24 25.68 -09 43 15.4                VEJ034673
Observer details:
291 LPL/Spacewatch II.  Observer T. H. Bressi.  1.8-m f/2.7 reflector + CCD.
673 Table Mountain Observatory, Wrightwood.  Observer J. Pittichova.  1.0-m
    f/15 reflector + CCD.
F52 Pan-STARRS 2, Haleakala.  Observers J. Herman, T. Lowe, P. Minguez, A.
    Schultz, I. Smith.  Measurers K. Chambers, T. de Boer, J. Fairlamb, H.
    Gao, M. Huber, C.-C. Lin, E. Magnier, Y. Ramanjooloo, R. Wainscoat, R.
    Weryk.  1.8-m Ritchey-Chretien + CCD.
H21 Astronomical Research Observatory, Westfield.  Observer R. Holmes.
    Measurers T. Linder, R. Holmes, L. Horn.  1.3-m f/4.0 astrograph + CCD.
Orbital elements:
2024 JJ                                                  Earth MOID = 0.0053 AU
Epoch 2024 Mar. 31.0 TT = JDT 2460400.5                 MPC                     
M  15.81501              (2000.0)            P               Q                  
n   0.48343377     Peri.   73.62493     -0.59808246     -0.80034187             
a   1.6078470      Node    53.18283     +0.71391716     -0.55576516             
e   0.5669816      Incl.    2.99559     +0.36416983     -0.22489549             
P   2.04           H   25.61          G   0.15           U   9                  
Residuals in seconds of arc
240501 F52  0.1+  0.0     240502 H21  0.1+  0.3-    240502 291  0.5+  0.4+
240501 F52  0.0   0.2+    240502 H21  0.4-  0.1+    240503 673  1.4-  0.2+
240501 F52  0.1-  0.1-    240502 291  0.8+  1.0+    240503 673  1.8-  0.2+
240502 H21  0.2+  0.1+    240502 291  0.6+  0.5+
Ephemeris:
2024 JJ                  a,e,i = 1.61, 0.57, 3                   q = 0.6962
Date    TT    R. A. (2000) Decl.     Delta      r    Elong.  Phase     V
2024 04 03    01 22 52.3 +23 10 14   0.1321  0.8766    19.6   157.5    31.1
...
2024 04 18    17 58 57.4 +36 20 03   0.02525 1.0104   103.9    74.7    20.3
...
2024 04 26    14 47 17.6 -03 47 27   0.08048 1.0849   167.4    11.7    21.0
...
2024 05 02    14 27 03.7 -09 01 55   0.1339  1.1409   173.2     6.0    22.0
2024 05 03    14 25 08.6 -09 31 50   0.1431  1.1502   172.7     6.4    22.2
2024 05 04    14 23 27.6 -09 58 17   0.1524  1.1595   172.1     6.9    22.4
...
2024 05 10    14 16 48.9 -11 50 09   0.2101  1.2149   166.3    11.3    23.3
...
2024 05 18    14 13 27.3 -13 17 00   0.2921  1.2876   158.4    16.8    24.4
...
2024 06 02    14 15 49.3 -14 57 43   0.4633  1.4191   145.1    24.2    25.8
A. U. Tomatic                (C) Copyright 2024 MPC           M.P.E.C. 2024-J34
    
    
More information about the Iaude
mailing list